Tracking 28518 objects as of 2-Mar-2024
HD Live streaming from Space Station
objects crossing your sky now

FLOCK 4Q 16

Track FLOCK 4Q 16 now!
10-day predictions
FLOCK 4Q 16 is classified as:


NORAD ID: 58271
Int'l Code: 2023-174R
Perigee: 515.7 km
Apogee: 529.7 km
Inclination: 97.5 °
Period: 94.9 minutes
Semi major axis: 6893 km
RCS: Unknown
Launch date: November 11, 2023
Source: United States (US)
Launch site: AIR FORCE WESTERN TEST RANGE (AFWTR)
Your satellite tracking list
Your tracking list is empty




NASA's NSSDC Master Catalog

Two Line Element Set (TLE):
1 58271U 23174R   24062.14234655  .00025938  00000-0  13187-2 0  9993
2 58271  97.4648 138.1617 0010203 254.4393 105.5714 15.16789022 17468
Source of the keplerian elements: AFSPC